Tracking 30101 objects as of 14-Dec-2024
HD Live streaming from Space Station
objects crossing your sky now

USA 105

Track USA 105 now!
USA 105 is classified as:


NORAD ID: 23223
Int'l Code: 1994-054A
Perigee: 35,669.4 km
Apogee: 35,919.1 km
Inclination: 13.1 °
Period: 1,436.1 minutes
Semi major axis: 42165 km
RCS: Unknown
Launch date: August 27, 1994
Source: United States (US)
Launch site: AIR FORCE EASTERN TEST RANGE (AFETR)

In the $1 billion range; ELINT; signals intelligence.
Your satellite tracking list
Your tracking list is empty




NASA's NSSDC Master Catalog

Two Line Element Set (TLE):
1 23223U 94054A   24340.71907533 0.00000000  00000-0  00000-0 0    05
2 23223  13.0644  14.3384 0029616  90.0631 270.2951  1.00270000    04
Source of the keplerian elements: McCants